DW4839 Weather Reports


time (UTC)temp
F
wind
direction
speed
knots
gust
knots
rain 1hr
in
rain 24hr
in
rain mn
in
humidity
%
barometer
mb
20260903124610 52 165 6.1 12.2 0.00 0.43 0.03 89 1009.6
20260903123110 52 180 6.1 11.3 0.00 0.43 0.03 89 1009.7
20260903121603 52 194 6.1 13.0 0.00 0.43 0.03 89 1009.7
20260903120130 51 161 6.1 10.4 0.00 0.43 0.03 90 1009.8
20260903114608 51 206 6.1 12.2 0.00 0.43 0.03 90 1009.7
20260903113107 51 181 5.2 12.2 0.00 0.43 0.03 90 1009.7
20260903111602 51 159 6.1 11.3 0.00 0.43 0.03 90 1009.6
20260903110105 52 179 5.2 12.2 0.00 0.43 0.03 90 1009.7
20260903104556 52 239 7.0 14.8 0.00 0.43 0.03 91 1009.7
20260903103104 52 182 6.1 12.2 0.00 0.43 0.03 91 1010.0
20260903101601 52 186 7.0 15.6 0.00 0.43 0.03 91 1009.6
20260903100105 52 188 6.1 12.2 0.00 0.43 0.03 91 1009.6
20260903094603 52 175 6.1 14.8 0.00 0.43 0.03 91 1009.6
20260903093107 52 177 6.1 11.3 0.02 0.43 0.03 91 1009.6
20260903091601 52 198 6.1 15.6 0.02 0.43 0.03 92 1009.7
20260903084558 52 211 5.2 12.2 0.02 0.43 0.03 92 1009.8
20260903083056 52 190 5.2 13.9 0.01 0.41 0.01 93 1009.9
20260903081601 52 184 5.2 13.9 0.01 0.41 0.01 93 1009.9
20260903080103 52 175 7.0 13.0 0.01 0.41 0.01 93 1009.9
20260903074627 52 197 7.0 13.9 0.02 0.41 0.01 93 1009.9
20260903073115 52 224 7.0 17.4 0.01 0.40 0.00 93 1009.9
20260903071607 52 208 6.1 13.9 0.01 0.40 0.00 93 1009.8
20260903070115 52 213 8.7 14.8 0.01 0.40 0.00 93 1009.8
20260903064555 53 182 8.7 13.9 0.00 0.39 0.39 92 1009.8
20260903063105 53 184 7.0 15.6 0.00 0.39 0.39 92 1009.8
20260903061611 53 215 6.1 13.0 0.00 0.39 0.39 92 1009.7
20260903060100 53 184 4.3 15.6 0.00 0.39 0.39 92 1009.7
20260903054603 53 183 6.1 12.2 0.00 0.39 0.39 92 1009.7
20260903053101 53 196 7.0 18.2 0.00 0.39 0.39 92 1010.0
20260903051603 53 194 3.5 13.0 0.00 0.39 0.39 92 1009.8
20260903050111 53 181 5.2 11.3 0.00 0.39 0.39 93 1009.8
20260903044605 53 231 4.3 12.2 0.00 0.39 0.39 93 1009.8
20260903043103 53 166 5.2 9.6 0.00 0.39 0.39 93 1009.6
20260903041616 54 200 5.2 12.2 0.00 0.39 0.39 93 1009.5
20260903040106 54 194 5.2 13.0 0.01 0.39 0.39 93 1009.4
20260903034600 54 205 5.2 7.8 0.01 0.39 0.39 93 1009.2
20260903033101 54 190 5.2 11.3 0.01 0.39 0.39 93 1009.0
20260903031611 55 177 4.3 12.2 0.01 0.39 0.39 93 1008.9
20260903030054 55 221 5.2 9.6 0.00 0.38 0.38 93 1009.0
20260903024600 55 198 6.1 9.6 0.00 0.38 0.38 93 1008.6
20260903023057 55 179 5.2 11.3 0.00 0.38 0.38 93 1008.5
20260903021555 55 190 7.0 14.8 0.00 0.38 0.38 93 1008.4
20260903020058 56 167 4.3 9.6 0.00 0.38 0.38 93 1008.2
20260903014625 56 196 3.5 7.0 0.00 0.38 0.38 93 1008.1
20260903013106 56 192 4.3 8.7 0.00 0.38 0.38 93 1008.2
20260903011622 56 200 3.5 7.8 0.00 0.38 0.38 93 1007.9
20260903010113 55 183 3.5 7.8 0.00 0.38 0.38 93 1008.0
20260903004607 55 196 4.3 8.7 0.02 0.38 0.38 93 1007.8
20260903003113 55 211 4.3 8.7 0.03 0.38 0.38 93 1007.7
20260903001606 55 215 4.3 8.7 0.03 0.38 0.38 93 1007.7
20260902234609 55 240 4.3 13.0 0.02 0.36 0.36 92 1007.5
20260902233057 56 195 5.2 16.5 0.01 0.35 0.35 92 1007.2
20260902231603 56 209 6.1 13.9 0.01 0.35 0.35 91 1007.2
20260902230104 56 238 7.0 16.5 0.00 0.34 0.34 91 1006.9
20260902224625 56 203 8.7 18.2 0.00 0.34 0.34 90 1006.8
20260902223100 56 182 7.8 14.8 0.00 0.34 0.34 90 1006.8
20260902221557 56 205 7.0 14.8 0.00 0.34 0.34 90 1006.9
20260902220101 56 230 7.8 16.5 0.01 0.34 0.34 90 1006.7
20260902214604 56 183 6.1 12.2 0.01 0.34 0.34 90 1006.8
20260902213106 56 190 5.2 13.9 0.02 0.34 0.34 91 1006.8
20260902211558 56 225 7.0 14.8 0.04 0.34 0.34 91 1006.8
20260902210108 56 181 6.1 13.0 0.06 0.33 0.33 90 1006.9
20260902204603 56 163 4.3 7.8 0.10 0.33 0.33 92 1006.7
20260902203115 55 140 3.5 7.8 0.15 0.32 0.32 92 1006.5
20260902201602 55 173 3.5 7.8 0.16 0.30 0.30 91 1006.6
20260902200105 56 162 2.6 7.8 0.15 0.27 0.27 91 1006.6
20260902194604 55 183 2.6 7.0 0.13 0.23 0.23 90 1006.9
20260902193100 56 199 4.3 9.6 0.07 0.16 0.16 89 1007.0
20260902191557 56 175 3.5 9.6 0.07 0.14 0.14 89 1007.0
20260902190114 56 170 5.2 10.4 0.06 0.11 0.11 89 1006.9
20260902184600 56 175 6.1 10.4 0.07 0.10 0.10 89 1007.1
20260902183103 56 175 4.3 12.2 0.08 0.09 0.09 89 1007.3
20260902181557 56 187 2.6 7.0 0.07 0.07 0.07 88 1007.8
20260902174605 57 213 0.9 2.6 0.03 0.03 0.03 86 1007.7
20260902173107 58 226 0.9 4.3 0.01 0.01 0.01 81 1007.5
20260902171609 60 215 1.7 5.2 0.00 0.00 0.00 74 1007.3
20260902170109 61 208 3.5 7.0 0.00 0.00 0.00 71 1007.2
20260902164559 61 162 3.5 7.8 0.00 0.00 0.00 68 1007.0
20260902163055 61 217 3.5 7.8 0.00 0.00 0.00 68 1007.0
20260902161605 61 152 4.3 8.7 0.00 0.00 0.00 70 1007.0
20260902160109 60 208 4.3 8.7 0.00 0.00 0.00 70 1007.1
20260902154603 60 167 3.5 7.8 0.00 0.00 0.00 72 1007.2
20260902153053 59 182 2.6 5.2 0.00 0.00 0.00 74 1007.3
20260902151611 59 194 2.6 7.8 0.00 0.00 0.00 76 1007.5
20260902144555 58 71 2.6 7.0 0.00 0.00 0.00 76 1007.8
20260902143055 58 136 1.7 5.2 0.00 0.00 0.00 76 1008.0
20260902141553 58 167 1.7 4.3 0.00 0.00 0.00 77 1008.1
20260902134611 58 180 1.7 3.5 0.00 0.00 0.00 77 1008.4
20260902133104 58 157 3.5 7.8 0.00 0.00 0.00 77 1008.8
20260902131607 57 148 3.5 6.1 0.00 0.00 0.00 77 1008.9
20260902130059 57 160 3.5 7.0 0.00 0.00 0.00 77 1009.1